STARLINK-35487 (66262 NORAD) Tracking and Keplerian Element Data

This shows tracking and keplerian element data for the satellite.

Feedback or suggestion? Click here.




ElementValue
Catalog66262
NameSTARLINK-35487
Epoch Orbit903
Epoch Day354.21416947
Epoch Year2025
RAAN293.3834
Inclination53.1618
Eccentricity7.05E-05
Argument of Perigee183.2528
Mean Anonmoly176.8472
Mean Motion15.39630438
Decay Rate0.00037332
L11 66262U 25245AE 25354.21416947 .00037332 00000+0 93840-3 0 9997
L22 66262 53.1618 293.3834 0000705 183.2528 176.8472 15.39630438 9030



Live tracking and technical data element details for STARLINK-35487 (NORAD 66262). STARLINK-35487 can be tracked NOW for your location showing map with azimuth and elevation plus other details from your city location.







IsCatalogInMostPopularTable: catalog: 66262, numindb: 11
Update: records affected: 1



GetName: 66262 STARLINK-35487

Hit Count: updated at: Tue, 21 Apr 2026 20:16:21 GMT